Regional Weather Roundup
Issued by NWS

Home | Current Version | Previous Version | Graphics & Text | Print | Product List | Glossary On
Versions: 1 2 3 4 5 6 7 8 9 10 11 12 13 14 15 16 17 18 19 20 21 22 23 24 25 26 27 28
000
ASUS45 KSLC 182110
RWRUT

UTAH REGIONAL WEATHER ROUNDUP
NATIONAL WEATHER SERVICE SALT LAKE CITY UT
300 PM MDT FRI APR 18 2014

UTZ001>011-023>025-182200-

NORTHERN UTAH

CITY           SKY/WX    TMP DP  RH WIND       PRES   REMARKS
HILL AFB       PTSUNNY   60  37  43 NW12      29.99R
LOGAN          LGT RAIN  48  45  89 S6        30.00F
OGDEN          CLOUDY    62  39  42 NW9       29.98R
PROVO AIRPORT  CLOUDY    63  45  51 NW22      29.94R
SALT LAKE CITY CLOUDY    61  40  45 N14       29.98R
VERNAL         PTSUNNY   72  23  16 SW13      29.90F
WENDOVER       CLOUDY    61  37  41 E12       29.96S
HEBER CITY     CLOUDY    64  23  20 SW14G24   29.94S
WEST JORDAN    SUNNY     57  46  67 NW15G21   29.99R

$$

UTZ012>022-026-027-182200-

SOUTHERN UTAH

CITY           SKY/WX    TMP DP  RH WIND       PRES   REMARKS
BRYCE CANYON   CLOUDY    60  18  19 S18G25    30.09F
CEDAR CITY     CLOUDY    68  19  15 SW16G25   29.97F
MILFORD        CLOUDY    73  18  12 S24G35    29.94F
MOAB/CYNLANDS  SUNNY     78  19  11 W23G29    29.90F
PRICE          CLOUDY    70  18  13 MISG      29.97F
ST GEORGE      CLOUDY    81  27  13 S15       29.88F
KANAB            N/A     66  27  22 S13       30.04F

$$

REGIONAL REPORTS     COLORADO/ARIZONA

CITY           SKY/WX    TMP DP  RH WIND       PRES   REMARKS
CRAIG, CO      MOSUNNY   70  25  18 SW23G33   29.94F
GRAND JUNCTION PTSUNNY   73  28  18 NW15      29.93F
RIFLE          MOSUNNY   74  23  15 W20G29    29.95F
MONTROSE       CLOUDY    74  21  13 W16G23    29.99F
CORTEZ         SUNNY     72  20  14 SW7G17    30.02F
PAGE, AZ       CLOUDY    75  21  13 VRB6      29.94F
GRAND CANYON   CLOUDY    59  21  23 S10G25    30.11F
KINGMAN        CLOUDY    75  25  15 S15G26    29.95S
FLAGSTAFF      CLOUDY    56  26  31 SW20G31   30.14R

$$

REGIONAL REPORTS    NEVADA/IDAHO/WYOMING

CITY           SKY/WX    TMP DP  RH WIND       PRES   REMARKS
LAS VEGAS, NV  CLOUDY    79  25  13 S9G21     29.83F
ELY            CLOUDY    66  23  19 S9        29.96F
ELKO           MOSUNNY   63  34  33 W9        29.97F
POCATELLO, ID  MOSUNNY   56  35  45 SW21G33   29.99R
BURLEY         MOSUNNY   57  35  43 W16G28    29.97F
EVANSTON, WY   PTSUNNY   57  30  35 W23G30    30.01R
ROCK SPRINGS   PTSUNNY   68  17  14 W30G43    29.92R

$$



USA.gov is the U.S. government's official web portal to all federal, state and local government web resources and services.